Погода в Прикубанском

Россия / Республика Адыгея     44°57′12″N   39°01′33″E
темп.,
°C
ветер,
м/с
пор.,
м/с
влажн.,
%
обл.,
%
осадки,
мм/ч
давл.,
гПа
погр.,
м
12 апреля, пн
пн1200:00+8ю1195100 0.0 101925
03:00+8ю1292100 0.1 102032
06:00+8ююз2592100 0.1 1020173
09:00+10юз3782100 0.1 1021833
12:00+12ююз3470100 0.0 10221034
15:00+13ююв2365100 0.0 10221021
18:00+11юв3585100 0.0 1022249
21:00+10ю0182100 0.1 102319
13 апреля, вт
вт1300:00+9юз2482100 0.1 1023200
03:00+8ююз2388100 0.3 1023161
06:00+8з1190100 0.2 102346
09:00+9в1183100 0.2 1023272
12:00+12в1173100 0.0 1023657
15:00+12ююв2275100 0.0 1023520
18:00+11юв2382100 0.0 1022238
21:00+10юв228799 0.0 1022104
14 апреля, ср
ср1400:00+9ююз0089100 0.0 102010
03:00+8зюз1194100 0.0 102011
06:00+7юз1195100 0.0 102013
09:00+11ююз227996 0.0 1020372
12:00+15юз2257100 0.0 10181301
15:00+17юз125097 0.1 10171569
18:00+15ю036339 0.0 1017205
21:00+11юз2273100 0.0 101736
15 апреля, чт
чт1500:00+9ю127736 0.0 101734
03:00+8юв22820 0.0 101632
06:00+8юв24905 0.0 101681
09:00+13юв337011 0.0 1016329
12:00+18з154944 0.0 10161616
15:00+18з134873 0.0 1016979
18:00+17юз12546 0.0 1016701
21:00+12зсз248045 0.0 1017140
16 апреля, пт
пт1600:00+10з128988 0.0 101781
03:00+8юз018995 0.0 101721
06:00+8вюв1191100 0.0 101718
09:00+12юв017178 0.0 1018444
12:00+14зсз1160100 0.1 1018846
15:00+12ссз4681100 1.0 1018371
18:00+11ссз2586100 1.1 1019401
21:00+10юв018891 1.3 1020117